Location: Del Amo
(33.8464°N, 118.2104°W)
Time: 08:02:52
(UTC+00:00)

Tiros 1 - All Passes

Search period start: 19 September 2024 00:00
Search period end: 29 September 2024 00:00
Orbit: 623 x 655 km, 48.4° (Epoch: 19 September)

Date Brightness Start Highest point End Pass type
(mag) Time Alt. Az. Time Alt. Az. Time Alt. Az.
19 Sep - 00:08:26 10° NW 00:10:53 14° N 00:13:23 10° NNE daylight
19 Sep - 01:51:46 10° NNW 01:54:27 15° NNE 01:57:10 10° NE daylight
19 Sep - 03:33:05 10° NW 03:37:27 40° NNE 03:41:50 10° ESE visible
19 Sep - 05:15:12 10° WNW 05:19:23 34° SW 05:23:37 10° SSE visible
19 Sep - 19:25:09 10° SSE 19:27:36 14° SE 19:30:02 10° E daylight
19 Sep - 21:04:32 10° SW 21:09:07 81° NW 21:13:42 10° NE daylight
19 Sep - 22:48:12 10° WNW 22:51:39 21° NNW 22:55:07 10° NNE daylight
20 Sep - 00:32:59 10° NNW 00:35:05 13° N 00:37:10 10° NNE daylight
20 Sep - 02:14:57 10° NNW 02:18:29 21° NNE 02:22:02 10° ENE visible
20 Sep - 03:56:22 10° NW 04:01:01 84° NE 04:05:41 10° SE visible
20 Sep - 05:40:06 10° W 05:42:32 14° SW 05:44:59 10° SSW visible
20 Sep - 19:46:35 10° SSW 19:50:44 35° SE 19:54:54 10° ENE daylight
20 Sep - 21:28:24 10° W 21:32:41 39° NNW 21:36:59 10° NE daylight
20 Sep - 23:13:04 10° NW 23:15:41 15° NNW 23:18:20 10° NNE daylight
21 Sep - 00:56:44 10° NNW 00:59:15 14° N 01:01:46 10° NE daylight
21 Sep - 02:38:05 10° NW 02:42:19 35° NNE 02:46:34 10° E visible
21 Sep - 04:20:01 10° WNW 04:24:22 41° SW 04:28:45 10° SSE visible
21 Sep - 18:31:06 10° SSE 18:32:37 11° SE 18:34:08 10° ESE daylight
21 Sep - 20:09:28 10° SW 20:14:02 85° SE 20:18:38 10° NE daylight
21 Sep - 21:52:51 10° WNW 21:56:29 23° NNW 22:00:07 10° NNE daylight
21 Sep - 23:37:45 10° NNW 23:39:51 13° N 23:41:57 10° NNE daylight
22 Sep - 01:19:58 10° NNW 01:23:18 19° NNE 01:26:39 10° ENE daylight
22 Sep - 03:01:19 10° NW 03:05:56 71° NE 03:10:34 10° ESE visible
22 Sep - 04:44:31 10° W 04:47:33 17° SW 04:50:35 10° S visible
22 Sep - 18:51:46 10° SSW 18:55:42 29° SE 18:59:39 10° ENE daylight
22 Sep - 20:33:10 10° WSW 20:37:34 45° NNW 20:41:58 10° NE daylight
22 Sep - 22:17:41 10° NW 22:20:28 16° NNW 22:23:16 10° NNE daylight
23 Sep - 00:01:40 10° NNW 00:04:01 14° N 00:06:23 10° NE daylight
23 Sep - 01:43:04 10° NW 01:47:10 31° NNE 01:51:17 10° E daylight
23 Sep - 03:24:51 10° WNW 03:29:19 50° SW 03:33:49 10° SSE visible
23 Sep - 19:14:25 10° SW 19:18:59 71° SE 19:23:32 10° NE daylight
23 Sep - 20:57:30 10° W 21:01:18 25° NNW 21:05:05 10° NNE daylight
23 Sep - 22:42:27 10° NNW 22:44:36 13° N 22:46:44 10° NNE daylight
24 Sep - 00:24:57 10° NNW 00:28:06 18° NNE 00:31:15 10° ENE daylight
24 Sep - 02:06:16 10° NW 02:10:49 60° NE 02:15:23 10° ESE visible
24 Sep - 03:49:04 10° W 03:52:31 21° SW 03:55:59 10° S visible
24 Sep - 17:56:59 10° S 18:00:41 24° SE 18:04:21 10° ENE daylight
24 Sep - 19:37:57 10° WSW 19:42:26 52° NW 19:46:55 10° NE daylight
24 Sep - 21:22:16 10° WNW 21:25:14 17° NNW 21:28:13 10° NNE daylight
24 Sep - 23:06:33 10° NNW 23:08:45 13° N 23:10:59 10° NE daylight
25 Sep - 00:48:03 10° NNW 00:52:00 27° NNE 00:55:57 10° E daylight
25 Sep - 02:29:42 10° WNW 02:34:15 61° SW 02:38:48 10° SE visible
25 Sep - 18:19:23 10° SW 18:23:53 58° SE 18:28:23 10° ENE daylight
25 Sep - 20:02:09 10° W 20:06:07 28° NNW 20:10:04 10° NNE daylight
25 Sep - 21:47:06 10° NW 21:49:19 13° N 21:51:34 10° NNE daylight
25 Sep - 23:29:54 10° NNW 23:32:51 17° NNE 23:35:48 10° NE daylight
26 Sep - 01:11:13 10° NW 01:15:41 51° NE 01:20:11 10° ESE daylight
26 Sep - 02:53:42 10° WNW 02:57:28 25° SW 03:01:15 10° S visible
26 Sep - 17:02:17 10° S 17:05:38 20° SE 17:08:57 10° E daylight
26 Sep - 18:42:44 10° WSW 18:47:17 62° NW 18:51:50 10° NE daylight
26 Sep - 20:26:50 10° WNW 20:30:00 18° NNW 20:33:10 10° NNE daylight
26 Sep - 22:11:22 10° NNW 22:13:29 13° N 22:15:37 10° NNE daylight
26 Sep - 23:53:01 10° NNW 23:56:48 24° NNE 00:00:34 10° E daylight
27 Sep - 01:34:33 10° NW 01:39:09 74° SW 01:43:45 10° SE daylight
27 Sep - 17:24:22 10° SSW 17:28:48 48° SE 17:33:12 10° ENE daylight
27 Sep - 19:06:48 10° W 19:10:55 31° NNW 19:15:01 10° NE daylight
27 Sep - 20:51:41 10° NW 20:54:03 14° N 20:56:25 10° NNE daylight
27 Sep - 22:34:50 10° NNW 22:37:36 15° NNE 22:40:21 10° NE daylight
28 Sep - 00:16:08 10° NW 00:20:31 43° NNE 00:24:55 10° ESE daylight
28 Sep - 01:58:23 10° WNW 02:02:24 30° SW 02:06:26 10° SSE visible
28 Sep - 16:07:42 10° SSE 16:10:34 16° SE 16:13:26 10° E daylight
28 Sep - 17:47:32 10° WSW 17:52:08 74° NW 17:56:44 10° NE daylight
28 Sep - 19:31:24 10° WNW 19:34:44 20° NNW 19:38:06 10° NNE daylight
28 Sep - 21:16:07 10° NNW 21:18:11 13° N 21:20:16 10° NNE daylight
28 Sep - 22:57:58 10° NNW 23:01:34 22° NNE 23:05:09 10° ENE daylight
